FW5910 Weather Reports


time (UTC)temp
C
wind
direction
speed
KPH
gust
KPH
rain 1hr
cm
rain 24hr
cm
rain mn
cm
humidity
%
barometer
mb
20260903074406 10 334 0.0 0.0 0.00 1.80 0.00 85 1008.4
20260903073905 10 336 0.0 0.0 0.00 1.80 0.00 85 1008.1
20260903073404 10 351 0.0 0.0 0.00 1.80 0.00 85 1008.1
20260903072403 10 351 0.0 0.0 0.00 1.80 0.00 85 1008.4
20260903071903 10 355 0.0 0.0 0.00 1.80 0.00 85 1008.4
20260903071404 10 355 0.0 0.0 0.00 1.80 0.00 85 1008.4
20260903070903 10 355 0.0 0.0 0.00 1.80 0.00 85 1008.3
20260903070404 10 198 0.0 0.0 0.00 1.80 0.00 85 1008.2
20260903065403 10 198 0.0 1.6 0.00 1.80 0.00 85 1008.0
20260903064906 10 198 0.0 1.6 0.00 1.80 0.00 85 1007.9
20260903064406 10 198 0.0 1.6 0.00 1.80 0.00 85 1007.9
20260903063904 10 198 0.0 1.6 0.00 1.80 0.00 85 1008.0
20260903063404 10 198 0.0 3.2 0.00 1.80 0.00 85 1008.3
20260903062906 10 198 0.0 3.2 0.00 1.80 0.00 85 1008.3
20260903062359 10 248 0.0 0.0 0.00 1.80 0.00 85 1008.4
20260903061850 10 218 0.0 0.0 0.00 1.80 0.00 85 1008.3
20260903060838 10 217 0.0 0.0 0.00 1.80 0.00 85 1008.2
20260903060340 10 217 0.0 0.0 0.00 1.80 0.00 85 1008.2
20260903055336 10 217 0.0 0.0 0.00 1.80 1.80 84 1008.4
20260903054835 10 217 0.0 0.0 0.00 1.80 1.80 84 1008.5
20260903053833 10 217 0.0 0.0 0.00 1.80 1.80 84 1008.4
20260903053333 10 217 0.0 0.0 0.00 1.80 1.80 84 1008.5
20260903052831 10 217 0.0 0.0 0.00 1.80 1.80 84 1008.6
20260903052331 10 217 0.0 0.0 0.00 1.80 1.80 84 1008.6
20260903051830 10 217 0.0 0.0 0.00 1.80 1.80 84 1008.6
20260903051331 10 217 0.0 0.0 0.00 1.80 1.80 83 1008.7
20260903050831 10 217 0.0 0.0 0.00 1.80 1.80 83 1008.7
20260903050331 10 217 0.0 0.0 0.00 1.80 1.80 83 1008.6
20260903045834 10 217 0.0 0.0 0.00 1.80 1.80 82 1008.9
20260903045335 10 217 0.0 0.0 0.00 1.80 1.80 81 1008.9
20260903044834 10 217 0.0 0.0 0.00 1.80 1.80 80 1009.0
20260903043833 10 217 0.0 0.0 0.00 1.80 1.80 77 1009.0
20260903043337 10 217 0.0 0.0 0.00 1.80 1.80 77 1009.1
20260903042831 10 217 0.0 0.0 0.00 1.80 1.80 76 1009.1
20260903042331 10 217 0.0 0.0 0.00 1.80 1.80 75 1009.1
20260903041832 10 217 0.0 0.0 0.00 1.80 1.80 75 1009.1
20260903041330 10 217 0.0 0.0 0.00 1.80 1.80 75 1009.3
20260903040831 10 217 0.0 0.0 0.00 1.80 1.80 74 1009.3
20260903040331 11 217 0.0 1.6 0.00 1.80 1.80 74 1009.4
20260903035831 11 217 1.6 4.8 0.00 1.80 1.80 73 1009.4
20260903035333 11 217 1.6 4.8 0.00 1.80 1.80 73 1009.5
20260903034832 11 214 1.6 4.8 0.00 1.80 1.80 72 1009.4
20260903033334 12 211 3.2 6.4 0.00 1.80 1.80 69 1009.4
20260903032333 12 231 3.2 6.4 0.00 1.80 1.80 68 1009.4
20260903031331 12 241 3.2 11.3 0.00 1.80 1.80 69 1009.3
20260903030830 12 208 1.6 6.4 0.00 1.80 1.80 70 1009.4
20260903030331 12 208 1.6 4.8 0.00 1.80 1.80 70 1009.4
20260903025832 12 205 1.6 6.4 0.00 1.80 1.80 70 1009.3
20260903024831 12 206 1.6 6.4 0.00 1.80 1.80 71 1009.3
20260903023331 12 205 3.2 6.4 0.00 1.80 1.80 70 1009.3
20260903022833 12 202 3.2 8.0 0.00 1.80 1.80 69 1009.2
20260903021831 12 214 3.2 8.0 0.00 1.80 1.80 69 1009.3
20260903021336 12 211 3.2 8.0 0.00 1.80 1.80 69 1009.4
20260903020833 12 212 3.2 11.3 0.00 1.80 1.80 69 1009.4
20260903015834 12 246 4.8 11.3 0.00 1.80 1.80 70 1009.3
20260903015333 12 229 4.8 8.0 0.00 1.80 1.80 70 1009.3
20260903014834 12 244 4.8 9.7 0.00 1.80 1.80 70 1009.3
20260903014334 12 221 4.8 11.3 0.00 1.80 1.80 69 1009.3
20260903013835 12 232 4.8 11.3 0.00 1.80 1.80 69 1009.4
20260903013334 12 229 4.8 9.7 0.00 1.80 1.80 70 1009.3
20260903012832 12 242 3.2 8.0 0.00 1.80 1.80 70 1009.3
20260903011832 12 210 3.2 6.4 0.00 1.80 1.80 71 1009.5
20260903010332 12 205 3.2 9.7 0.00 1.80 1.80 71 1009.7
20260903005830 12 205 3.2 9.7 0.00 1.80 1.80 72 1009.6
20260903005330 12 226 4.8 12.9 0.00 1.80 1.80 71 1009.7
20260903004834 12 0 3.2 12.9 0.03 1.80 1.80 72 1009.7
20260903004332 11 0 3.2 12.9 0.03 1.80 1.80 72 1009.7
20260903003831 11 0 3.2 9.7 0.03 1.80 1.80 75 1010.0
20260903003331 11 0 4.8 9.7 0.03 1.80 1.80 74 1010.0
20260903002830 11 0 4.8 12.9 0.03 1.80 1.80 75 1010.0
20260903002332 11 0 4.8 12.9 0.05 1.80 1.80 76 1010.2
20260903001825 11 0 6.4 16.1 0.05 1.80 1.80 77 1010.1
20260903001319 11 0 4.8 16.1 0.05 1.80 1.80 77 1010.2
20260903000812 11 0 4.8 12.9 0.08 1.80 1.80 79 1010.2
20260903000313 11 0 4.8 16.1 0.08 1.80 1.80 80 1010.1
20260902235811 11 0 4.8 16.1 0.08 1.80 1.80 82 1010.3
20260902235311 11 0 4.8 14.5 0.10 1.80 1.80 82 1010.2
20260902234811 11 0 4.8 14.5 0.08 1.78 1.78 82 1010.3
20260902233807 11 0 4.8 14.5 0.10 1.78 1.78 84 1010.3
20260902232809 11 0 4.8 16.1 0.15 1.78 1.75 84 1010.4
20260902231808 12 0 3.2 6.4 0.25 1.75 1.75 85 1010.4
20260902231309 12 0 3.2 12.9 0.30 1.75 1.75 85 1010.4
20260902230315 11 0 3.2 9.7 0.43 1.73 1.73 82 1010.3
20260902225309 11 0 6.4 16.1 0.53 1.70 1.70 81 1010.0
20260902224806 11 0 6.4 16.1 0.61 1.70 1.70 82 1010.0
20260902224308 11 0 6.4 19.3 0.66 1.70 1.68 82 1010.0
20260902223309 12 0 6.4 19.3 0.84 1.65 1.65 82 1010.1
20260902222806 12 0 6.4 19.3 0.94 1.63 1.60 82 1010.2
20260902222309 12 0 6.4 22.5 0.97 1.57 1.55 82 1010.1
20260902221805 12 0 6.4 22.5 0.97 1.50 1.50 82 1010.1
20260902221306 12 0 8.0 27.4 1.02 1.45 1.42 82 1010.1
20260902220803 12 0 9.7 27.4 0.99 1.37 1.35 82 1010.2
20260902220304 12 0 9.7 27.4 0.99 1.30 1.30 82 1010.3
20260902215803 12 0 8.0 25.7 1.04 1.24 1.22 82 1010.2
20260902215306 12 0 8.0 29.0 1.12 1.17 1.17 80 1010.0
20260902214805 12 0 8.0 29.0 1.09 1.09 1.09 77 1009.8
20260902213803 13 0 6.4 16.1 0.91 0.91 0.89 76 1009.6
20260902213304 13 0 4.8 16.1 0.81 0.81 0.79 76 1009.6
20260902212802 13 0 3.2 16.1 0.69 0.69 0.66 74 1009.6
20260902212306 13 0 3.2 17.7 0.61 0.61 0.58 74 1009.6
20260902211306 13 0 6.4 27.4 0.43 0.43 0.41 71 1009.6
20260902210803 13 0 8.0 27.4 0.38 0.38 0.36 71 1009.4
20260902210304 14 0 8.0 25.7 0.30 0.30 0.30 69 1009.3
20260902205802 15 0 8.0 25.7 0.20 0.20 0.18 68 1009.1
20260902205306 15 0 9.7 32.2 0.05 0.05 0.03 64 1008.7
20260902204805 16 0 11.3 32.2 0.00 0.00 0.00 61 1008.5
20260902204308 17 0 11.3 29.0 0.00 0.00 0.00 56 1008.0
20260902203807 17 0 8.0 33.8 0.00 0.00 0.00 54 1007.8
20260902203309 18 0 8.0 33.8 0.00 0.00 0.00 48 1007.3
20260902202808 20 0 6.4 30.6 0.00 0.00 0.00 45 1006.7
20260902202306 21 0 6.4 17.7 0.00 0.00 0.00 42 1006.3
20260902201803 21 0 4.8 14.5 0.00 0.00 0.00 40 1006.0
20260902201304 22 0 4.8 19.3 0.00 0.00 0.00 41 1005.8
20260902200805 22 0 4.8 19.3 0.00 0.00 0.00 39 1005.7
20260902200305 23 248 3.2 9.7 0.00 0.00 0.00 38 1005.7
20260902195802 23 224 3.2 11.3 0.00 0.00 0.00 37 1005.7
20260902195306 23 133 3.2 11.3 0.00 0.00 0.00 37 1005.6
20260902194759 23 153 3.2 16.1 0.00 0.00 0.00 35 1005.5
20260902194259 23 155 3.2 16.1 0.00 0.00 0.00 36 1005.5
20260902193758 22 169 4.8 11.3 0.00 0.00 0.00 36 1005.5
20260902193301 22 207 6.4 19.3 0.00 0.00 0.00 35 1005.6
20260902192758 22 111 6.4 19.3 0.00 0.00 0.00 35 1005.6
20260902192256 23 167 4.8 16.1 0.00 0.00 0.00 35 1005.6
20260902191757 22 0 6.4 20.9 0.00 0.00 0.00 36 1005.8
20260902191256 22 0 6.4 20.9 0.00 0.00 0.00 37 1005.8
20260902190256 23 180 4.8 16.1 0.00 0.00 0.00 35 1006.1
20260902185257 23 113 4.8 19.3 0.00 0.00 0.00 34 1006.1
20260902184757 23 178 3.2 19.3 0.00 0.00 0.00 34 1006.2
20260902184257 23 105 4.8 22.5 0.00 0.00 0.00 35 1006.2
20260902183750 23 166 4.8 22.5 0.00 0.00 0.00 34 1006.3
20260902182752 23 114 4.8 16.1 0.00 0.00 0.00 37 1006.1
20260902182251 22 219 3.2 16.1 0.00 0.00 0.00 37 1006.0
20260902181251 22 182 4.8 12.9 0.00 0.00 0.00 38 1005.9
20260902180750 22 173 4.8 12.9 0.00 0.00 0.00 37 1005.9
20260902180251 22 81 6.4 19.3 0.00 0.00 0.00 37 1006.0
20260902175752 22 221 4.8 19.3 0.00 0.00 0.00 37 1005.9
20260902175251 22 0 4.8 12.9 0.00 0.00 0.00 38 1005.9
20260902174746 22 0 3.2 12.9 0.00 0.00 0.00 37 1006.0
20260902174246 22 0 3.2 9.7 0.00 0.00 0.00 37 1006.0
20260902173746 22 0 3.2 9.7 0.00 0.00 0.00 37 1005.9
20260902173246 21 0 3.2 12.9 0.00 0.00 0.00 40 1006.0
20260902172747 21 0 3.2 12.9 0.00 0.00 0.00 38 1005.9
20260902172248 21 0 3.2 8.0 0.00 0.00 0.00 39 1005.9
20260902171248 21 0 3.2 4.8 0.00 0.00 0.00 40 1006.0
20260902170747 21 0 1.6 4.8 0.00 0.00 0.00 40 1006.1
20260902170242 21 0 1.6 3.2 0.00 0.00 0.00 41 1006.0
20260902165743 21 0 1.6 3.2 0.00 0.00 0.00 43 1006.0
20260902165242 21 0 1.6 3.2 0.00 0.00 0.00 43 1006.0
20260902164742 21 0 1.6 4.8 0.00 0.00 0.00 44 1006.0
20260902164242 20 0 3.2 4.8 0.00 0.00 0.00 43 1005.9
20260902163242 21 0 1.6 4.8 0.00 0.00 0.00 42 1006.0
20260902162742 21 0 1.6 3.2 0.00 0.00 0.00 42 1006.0
20260902161743 20 113 3.2 4.8 0.00 0.00 0.00 45 1006.0
20260902161247 20 116 3.2 6.4 0.00 0.00 0.00 45 1006.1
20260902160246 20 114 4.8 9.7 0.00 0.00 0.00 46 1006.2
20260902155746 20 120 3.2 9.7 0.00 0.00 0.00 45 1006.2
20260902155243 20 107 1.6 6.4 0.00 0.00 0.00 45 1006.2
20260902154747 20 0 1.6 6.4 0.00 0.00 0.00 45 1006.1
20260902154245 19 0 0.0 3.2 0.00 0.00 0.00 46 1006.0
20260902153742 19 0 1.6 4.8 0.00 0.00 0.00 47 1006.1
20260902153242 18 0 1.6 6.4 0.00 0.00 0.00 46 1006.0
20260902152744 19 0 1.6 6.4 0.00 0.00 0.00 46 1005.9
20260902152246 19 0 1.6 4.8 0.00 0.00 0.00 47 1006.1
20260902151741 19 0 1.6 4.8 0.00 0.00 0.00 48 1006.2
20260902151242 19 0 0.0 4.8 0.00 0.00 0.00 49 1006.3
20260902150239 19 0 1.6 4.8 0.00 0.00 0.00 49 1006.6
20260902145738 18 0 0.0 4.8 0.00 0.00 0.00 49 1006.6
20260902145237 18 0 0.0 3.2 0.00 0.00 0.00 48 1006.7
20260902144736 18 0 1.6 4.8 0.00 0.00 0.00 47 1006.7
20260902144236 18 0 1.6 4.8 0.00 0.00 0.00 49 1006.7
20260902143736 18 30 0.0 3.2 0.00 0.00 0.00 49 1006.8
20260902143234 18 355 0.0 3.2 0.00 0.00 0.00 46 1006.7
20260902142734 18 355 0.0 1.6 0.00 0.00 0.00 48 1006.8
20260902142233 18 106 0.0 1.6 0.00 0.00 0.00 50 1006.7
20260902141733 18 121 0.0 1.6 0.00 0.00 0.00 51 1006.7
20260902141230 17 121 0.0 1.6 0.00 0.00 0.00 49 1006.7
20260902140734 17 121 1.6 4.8 0.00 0.00 0.00 49 1006.6
20260902140231 17 119 1.6 6.4 0.00 0.00 0.00 49 1006.5
20260902135734 17 119 3.2 6.4 0.00 0.00 0.00 50 1006.6
20260902134231 18 207 3.2 11.3 0.00 0.00 0.00 45 1006.6
20260902133733 18 229 4.8 14.5 0.00 0.00 0.00 45 1006.6
20260902133232 18 225 4.8 14.5 0.00 0.00 0.00 44 1006.5
20260902132732 18 0 3.2 11.3 0.00 0.00 0.00 44 1006.6
20260902131735 18 0 6.4 17.7 0.00 0.00 0.00 45 1006.7
20260902131231 18 0 6.4 19.3 0.00 0.00 0.00 45 1006.7
20260902130735 18 0 4.8 19.3 0.00 0.00 0.00 45 1006.8
20260902130234 18 0 6.4 24.1 0.00 0.00 0.00 45 1006.9
20260902125731 18 0 6.4 24.1 0.00 0.00 0.00 45 1007.1
20260902125231 18 0 6.4 16.1 0.00 0.00 0.00 45 1007.2
20260902124230 18 0 6.4 16.1 0.00 0.00 0.00 43 1007.1
20260902123732 18 0 6.4 20.9 0.00 0.00 0.00 43 1007.1
20260902123231 18 0 6.4 20.9 0.00 0.00 0.00 43 1007.1
20260902122735 18 0 6.4 16.1 0.00 0.00 0.00 42 1007.2
20260902122230 19 0 8.0 19.3 0.00 0.00 0.00 41 1007.2
20260902120734 18 0 4.8 9.7 0.00 0.00 0.00 42 1007.1
20260902120231 18 0 4.8 12.9 0.00 0.00 0.00 42 1007.1
20260902115731 18 0 4.8 20.9 0.00 0.00 0.00 42 1007.1
20260902115230 18 0 4.8 20.9 0.00 0.00 0.00 42 1007.2
20260902114732 18 0 6.4 19.3 0.00 0.00 0.00 43 1007.1
20260902114235 18 0 8.0 17.7 0.00 0.00 0.00 43 1007.2
20260902113731 18 0 8.0 16.1 0.00 0.00 0.00 44 1007.2
20260902112231 18 0 4.8 16.1 0.00 0.00 0.00 41 1007.3
20260902111732 18 0 4.8 14.5 0.00 0.00 0.00 42 1007.4
20260902111231 18 0 3.2 12.9 0.00 0.00 0.00 43 1007.7
20260902110731 18 0 3.2 12.9 0.00 0.00 0.00 43 1007.5
20260902110231 18 0 4.8 14.5 0.00 0.00 0.00 43 1007.7
20260902105230 18 0 4.8 9.7 0.00 0.00 0.00 42 1007.8
20260902104234 18 0 3.2 9.7 0.00 0.00 0.00 42 1007.5
20260902103731 19 0 3.2 9.7 0.00 0.00 0.00 45 1007.4
20260902103231 19 0 4.8 12.9 0.00 0.00 0.00 40 1007.4
20260902102731 20 0 4.8 14.5 0.00 0.00 0.00 39 1007.4
20260902102233 20 0 4.8 14.5 0.00 0.00 0.00 39 1007.5
20260902101731 20 0 6.4 16.1 0.00 0.00 0.00 39 1007.5
20260902101230 20 0 6.4 16.1 0.00 0.00 0.00 39 1007.5
20260902100732 20 0 6.4 16.1 0.00 0.00 0.00 39 1007.5
20260902100231 20 0 4.8 16.1 0.00 0.00 0.00 39 1007.7
20260902095732 20 0 4.8 9.7 0.00 0.00 0.00 39 1007.7
20260902095231 20 0 4.8 19.3 0.00 0.00 0.00 38 1007.7
20260902094738 20 0 6.4 19.3 0.00 0.00 0.00 38 1007.9
20260902094234 20 0 8.0 19.3 0.00 0.00 0.00 37 1008.0
20260902093731 20 0 6.4 17.7 0.00 0.00 0.00 38 1007.8
20260902093233 20 0 6.4 20.9 0.00 0.00 0.00 37 1007.9
20260902092231 20 0 6.4 20.9 0.00 0.00 0.00 39 1008.0
20260902091731 20 0 6.4 20.9 0.00 0.00 0.00 37 1008.2
20260902091230 20 0 4.8 16.1 0.00 0.00 0.00 36 1008.3
20260902090731 20 0 4.8 16.1 0.00 0.00 0.00 37 1008.2
20260902090230 20 0 4.8 14.5 0.00 0.00 0.00 37 1008.2
20260902085729 20 0 4.8 14.5 0.00 0.00 0.00 38 1008.3
20260902084717 20 0 4.8 9.7 0.00 0.00 0.00 38 1008.3
20260902083706 20 0 3.2 9.7 0.00 0.00 0.00 38 1008.5
20260902083205 20 0 4.8 17.7 0.00 0.00 0.00 38 1008.4
20260902082704 20 0 6.4 17.7 0.00 0.00 0.00 38 1008.5
20260902082205 20 0 8.0 17.7 0.00 0.00 0.00 37 1008.4
20260902081705 20 0 6.4 14.5 0.00 0.00 0.00 37 1008.4
20260902081204 20 0 4.8 9.7 0.00 0.00 0.00 36 1008.4
20260902080704 20 0 3.2 6.4 0.00 0.00 0.00 36 1008.2
20260902080205 20 0 1.6 6.4 0.00 0.00 0.00 36 1008.2
20260902075705 20 0 3.2 6.4 0.00 0.00 0.00 37 1008.2
20260902075206 20 0 1.6 4.8 0.00 0.00 0.00 40 1008.3